QZS-6 (QZSS/PRN 200)

Last updated on Sun Jun 21 2026 00:03:34 GMT+0000 (Coordinated Universal Time)

1 62876U 25023A 26171.40996537 -.00000237 00000+0 00000+0 0 9992 2 62876 0.0614 73.8005 0001896 19.1523 53.7613 1.00270060 4982
UTC large
Height (km)
Speed (km/s)
/
Latitude / Longitude
Inclination (degrees)
Orbital Period (minutes)
Azimuth
Elevation
Range (km)
Doppler Factor

Next 0 passes for location: London (51.5072 / 0.1276)

No passes found over London.
QZS-6 (QZSS/PRN 200)